Location: *
(40.4000°N, 15.1200°E)
Time: 04:10:06
(UTC+00:00)

ATLAS CENTAUR Rocket - Pass Details

Date: 09 April 2020
Orbit: 646 x 36600 km, 28.5° (Epoch: 05 June)

Event Time Altitude Azimuth Distance (km) Brightness Sun altitude
Rises 17:14:14 0° 244° (WSW) 3,234 6.3 2.6°
Reaches altitude 10° 17:15:54 10° 234° (SW) 2,605 5.5 2.3°
Maximum altitude 17:21:07 41° 163° (SSE) 2,266 4.3 1.3°
Drops below altitude 10° 17:44:17 10° 101° (E) 10,774 7.2 -3.0°
Enters shadow 17:56:00 - 99° (E) 14,429 7.8 -5.2°
